Location: Unspecified
(0.0000°N, 0.0000°E)
Time: 13:43:23
(UTC+00:00)

Altair - Pass Details

Date: 21 November 2019
Orbit: 1502 x 1682 km, 47.2° (Epoch: 08 December)

Event Time Altitude Azimuth Distance (km) Brightness Sun altitude
Rises 09:33:37 0° 342° (NNW) 4,710 9.8 52.0°
Reaches altitude 10° 09:37:17 10° 354° (N) 3,756 9.4 52.8°
Maximum altitude 09:45:04 28° 49° (NE) 2,673 9.3 54.4°
Drops below altitude 10° 09:53:03 10° 104° (ESE) 3,880 10.3 56.0°
Sets 09:56:52 0° 115° (ESE) 4,891 10.6 56.7°
